OBJECT C, 69099

Orbit data source: Space-Track

You're viewing an Uncataloged Satellite

Recently launched and/or uncataloged satellites may have evolving metadata. Metadata may include but not limited to: Owner, Maufacturer, Bus, Motor, and Mission.

OBJECT C, 69099 is a Chinese satellite in SSO that was launched on Fri, 15 May 2026 UTC via a LIJIAN-1 launch vehicle from the Jiuquan Satellite Launch Center, China (JSC). Unknown objects in Earth's orbit typically refer to objects detected orbiting the Earth but have not yet been identified or cataloged. These objects could be anything from previously untracked satellites, spent rocket stages, debris from satellite collisions, or even natural meteoroids temporarily captured by Earth's gravity.

Loading next visibility...
Identifier
69099, 2026-106C
Orbit
SSO
Country
Flag of CNCN / PRC
Related business
None
Manufacturer
Unknown
Mission
Operational spacecraft
Bus & Motor
Unknown
Mass
Unknown
Launch date (UTC)
2026-05-15 (1 month ago)
Launch vehicle
LIJIAN-1
Launch site
Jiuquan Satellite Launch Center, China (JSC)
Object type
Unknown
Shape & HBR
Unknown shape, 1.1 m
Radar Cross Section
Large (>1 m²)

Expand to show TLE details & history
Last TLE update: 6 hours ago

TLE from 6 hours ago
0 OBJECT C
1 69099U 26106C   26168.80784662  .00004815  00000-0  28946-3 0  9992
2 69099  97.5098 250.8847 0014824 159.9696 200.2118 15.11244284  5079
Epoch: 2026-06-17T19:23Z
TLE epoch observation values (Epoch: 2026-06-17T19:23:17.947Z)
Latitude
-0.00015°
Longitude
53.99972°
Altitude
545.097 km
Speed
7.584 km/s
True Right ascension
16h 43m 32s
True Declination
0° 00' 01"
Sunlit
Object was in full shadow at epoch
Visualization orbit readout
Latitude
Unknown
Longitude
Unknown
Altitude
Unknown
Speed
Unknown
Apparent Right ascension
Unknown
Apparent Declination
Unknown
Sunlit
N/A
Visualization observer readout
Local Sidereal Time
12:28:42
Azimuth
Unknown
Elevation
Unknown
Doppler factor
Unknown
Orbital elements
Apogee altitude
539.626 km
Perigee altitude
519.146 km
Semi-major axis
6,907.523 km
Eccentricity
0.00148
Inclination
97.5098°
RAAN
250.8847°
Arg. of periapsis
159.9696°
True anomaly
200.15321°
Mean anomaly
200.2118°
Eccentric anomaly
200.1825°
Mean motion
3.78059 °/min
Orbital period
95.22 mins
BSTAR
0.00028946
Loading maneuver chart data...
Computing Atmospheric mass density...
Loading historical data...
Loading historical data...
Loading historical data...
Loading historical data...
Loading historical data...
Loading historical data...
Loading historical data...
Other satellites on launch #106 in the year 2026 (2026-05-15 UTC)

Documentation

Showing up to 5 results
|